Showing default

YUNYAO-1 43, 63344

Orbit data source: Space-Track

YUNYAO-1 43, 63344 is a payload satellite owned by Yunyao yuhang (CN) in SSO that was launched on Fri, 21 Mar 2025 UTC via a GUSHENXING 1 launch vehicle from the Jiuquan Satellite Launch Center, China (JSC). Payload-class satellites include a variety of spacecraft equipped with specific instruments for various scientific and technological missions. These include communications satellites like Starlink; space stations such as the ISS; scientific satellites like the Hubble; Earth observation satellites from companies like Planet Labs, Umbra, and HawkEye 360; GPS; miniature CubeSats for education and research; and military/defense satellites.

Loading next visibility...
Identifier
63344, 2025-059A
Orbit
SSO
Last TLE update
5 hours ago
Origin
Manufacturer
Changguang WJ
Mission
Operational spacecraft
Bus & Motor
YY-1, Unknown motor
Mass
~50 kg wet, ~50 kg dry
Launch date (UTC)
2025-03-21 (3 months ago)
Launch vehicle
GUSHENXING 1
Launch site
Jiuquan Satellite Launch Center, China (JSC)
Object type
Payload
Rocket body
Debris
Shape & HBR
Unknown
Radar Cross Section
Medium (>0.1 m² and <1 m²)

Expand to show TLE details & history

TLE from 5 hours ago
0 YUNYAO-1 43
1 63344U 25059A   25182.14779213  .00002102  00000-0  14115-3 0  9993
2 63344  97.6010   1.3852 0013862 276.8619  83.1032 15.07841843 15344
Epoch: 2025-07-01T03:32Z
TLE epoch observation values (Epoch: 2025-07-01T03:32:49.24Z)
Latitude
0.00003°
Longitude
28.73262°
Altitude
544.725 km
Speed
7.59 km/s
True Right ascension
00h 05m 32s
True Declination
0° 00' 00"
Sunlit
Object was in daylight at epoch
Visualization orbit readout
Latitude
81.3965°
Longitude
-89.74838°
Altitude
565.852 km
Speed
7.58 km/s
Apparent Right ascension
09h 10m 00s
Apparent Declination
31° 32' 41"
Sunlit
Object is in daylight
Visualization observer readout
Local Sidereal Time
20:22:40
Azimuth
349.43° N
Elevation
-17.702°
Doppler factor
1
Orbital elements
Apogee altitude
549.376 km
Perigee altitude
530.197 km
Semi-major axis
6,917.924 km
Eccentricity
0.00139
Inclination
97.601°
RAAN
1.3852°
Arg. of periapsis
276.8619°
True anomaly
Unknown
Mean anomaly
83.1032°
Eccentric anomaly
Unknown
Mean motion
3.77207 °/min
Orbital period
95.44 mins
BSTAR
0.00014115
Loading maneuver chart data...
Loading SW <> Apogee altitude chart data...
Loading historical data...
Loading historical data...
Loading historical data...
Loading historical data...
Loading historical data...
Loading historical data...
Loading historical data...
Other satellites on launch #59 in the year 2025 (2025-03-21 UTC)

YUNYAO-1 43 Visibility forecast

Observer location: undefined°, undefined°

Span
Click to sort rows by Start time (UTC) header in descending order
Start Az.
Max El. time (UTC)
Max El. Az.
Max El.
End time (UTC)
End Az.
6 mins2025-07-01 11:38:29.941Z144.979° SSE2025-07-01 11:41:29.941Z78.079° E36.609°2025-07-01 11:44:29.941Z3.707° NNE
6 mins2025-07-02 00:49:29.941Z13.679° NNE2025-07-02 00:52:29.941Z175.791° S44.28°2025-07-02 00:55:29.941Z191.647° SSW
|